Retour au catalogue

ONEWEB-0625

ActifCommunicationsPO
NORAD 55166·PAYLOAD·🇬🇧 United Kingdom

Lancé Jan 10, 2023 depuis Cape Canaveral Space Force Station

Loading…

Prochains Passages (prochaines 24 heures)

TLE

FraisSource: CelesTrak SupGP

Époque: Sep 14, 2026, 11:18 UTC

1 55166C 23004AC  26257.47098796 -.00002916  00000+0 -75203-2 0  2579
2 55166  87.9211 348.1442 0001990  98.4917 309.8108 13.17652002    13

Suivez ONEWEB-0625 en temps réel avec AllMySat

Download on the App Store